Content
SEND FEEDBACK

Daily
Averages
Monthly
Summary
Mexico

CANCUN, QUINTANA ROO


Home > North America > Mexico > Quintana Roo
Elevation: 30 feet     Latitude: 21 09N     Longitude: 086 49W

WEATHER
 
SELECT A DAY
Number of Records: 167,785;   Date Range: 1/1/95 - 12/19/14
 
SHARE

PRINT THIS DATA

[ ← Previous Day ]
WEATHER ALMANAC - JANUARY 14, 2013
[ Next Day → ]
[ °C ]   °F
Weather ElementAverageHighLow
Temperature78.2 °F84.2 °F (11:45 am)73.4 °F (1:44 am)
Dewpoint71.6 °F73.4 °F (1:41 pm)69.8 °F (1:44 am)
Humidity80.3 %89 % (5:42 pm)66 % (11:45 am)
Barometer28.89 in30.06 in (8:43 am) (7:00 pm)
Wind Speed10.2 mph16.1 mph (11:45 am)
Weather ElementAverage
Visibility6.9 mi
Wind DirectionESE (119.2 °)

Weather ElementTotal
Precipitation---
Cooling Degree Days13.8 (Base 65)
Growing Degree Days28.8 (Base 50)
Averaged from 24 records on January 14, 2013
WEATHER CONDITIONS BREAKOUT
WIND DIRECTION BREAKOUT
WEATHER BY HOUR - JANUARY 14, 2013
[ °C ]   °F
Local TimeTemperatureDewpointHumidityBarometerVisibilityWind DirectionWind SpeedGust SpeedPrecipitationEventsConditions
1:44 AM73.4 °F69.8 °F88 %29.99 in7.0 miESE (110°)11.5 mphClear
2:46 AM73.4 °F69.8 °F88 %29.96 in7.0 miESE (120°)8.1 mphPartly Cloudy
3:45 AM73.4 °F69.8 °F88 %29.98 in7.0 miSE (130°)10.4 mphScattered Clouds
4:44 AM73.4 °F69.8 °F88 %29.99 in7.0 miEast (100°)5.8 mphScattered Clouds
5:43 AM73.4 °F69.8 °F88 %29.98 in7.0 miSE (130°)8.1 mphScattered Clouds
6:42 AM77.0 °F71.6 °F83 %30.02 in7.0 miSE (130°)6.9 mphScattered Clouds
7:43 AM78.8 °F71.6 °F78 %30.04 in7.0 miESE (120°)6.9 mphScattered Clouds
8:43 AM80.6 °F71.6 °F74 %30.06 in7.0 miESE (110°)11.5 mphScattered Clouds
9:41 AM82.4 °F71.6 °F70 %30.06 in7.0 miESE (120°)15.0 mphScattered Clouds
10:41 AM82.4 °F71.6 °F70 %30.04 in7.0 miSE (130°)15.0 mphMostly Cloudy
11:45 AM84.2 °F71.6 °F66 %30.02 in7.0 miSE (140°)16.1 mphMostly Cloudy
12:44 PM84.2 °F71.6 °F66 %30.00 in7.0 miSE (130°)16.1 mphMostly Cloudy
1:41 PM82.4 °F73.4 °F74 %29.99 in7.0 miSE (130°)13.8 mphMostly Cloudy
2:42 PM80.6 °F73.4 °F79 %29.99 in7.0 miSE (130°)12.7 mphMostly Cloudy
3:02 PM78.8 °F73.4 °F83 %6.0 miSE (130°)13.8 mphRainLight Rain
3:42 PM78.8 °F71.6 °F78 %30.01 in7.0 miSE (130°)10.4 mphMostly Cloudy
4:43 PM80.6 °F71.6 °F74 %30.02 in7.0 miEast (100°)5.8 mphScattered Clouds
5:42 PM77.0 °F73.4 °F89 %30.03 in6.0 miESE (110°)6.9 mphMostly Cloudy
6:45 PM77.0 °F73.4 °F89 %30.04 in7.0 miESE (110°)8.1 mphMostly Cloudy
7:44 PM77.0 °F71.6 °F83 %30.04 in7.0 miESE (120°)8.1 mphMostly Cloudy
8:48 PM77.0 °F71.6 °F83 %30.05 in7.0 miESE (110°)10.4 mphScattered Clouds
9:47 PM77.0 °F71.6 °F83 %30.04 in7.0 miEast (100°)5.8 mphPartly Cloudy
10:44 PM77.0 °F71.6 °F83 %30.03 in7.0 miESE (110°)8.1 mphScattered Clouds
11:48 PM77.0 °F71.6 °F83 %30.03 in7.0 miESE (110°)9.2 mphScattered Clouds
Hourly data recorded from MMUN, located miles away from Cancun, Quintana Roo







STORIES FROM OUR PARTNERS